| time (UTC) | temp F | wind direction | speed MPH | gust MPH | rain 1hr in | rain 24hr in | rain mn in | humidity % | barometer mb |
| 20260831080121 | 43 | 0 | 2.0 | 5.0 | 0.00 | 0.00 | 0.00 | 57 | 1019.6 |
| 20260831075617 | 43 | 187 | 0.0 | 3.0 | 0.00 | 0.00 | 0.00 | 56 | 1019.5 |
| 20260831075113 | 42 | 306 | 0.0 | 3.0 | 0.00 | 0.00 | 0.00 | 59 | 1019.6 |
| 20260831074612 | 42 | 103 | 5.0 | 5.0 | 0.00 | 0.00 | 0.00 | 59 | 1019.5 |
| 20260831074107 | 43 | 297 | 1.0 | 5.0 | 0.00 | 0.00 | 0.00 | 58 | 1019.5 |
| 20260831073602 | 43 | 324 | 2.0 | 3.0 | 0.00 | 0.00 | 0.00 | 57 | 1019.5 |
| 20260831073101 | 43 | 97 | 3.0 | 6.0 | 0.00 | 0.00 | 0.00 | 58 | 1019.5 |
| 20260831072556 | 43 | 103 | 1.0 | 5.0 | 0.00 | 0.00 | 0.00 | 59 | 1019.4 |
| 20260831072054 | 44 | 41 | 2.0 | 5.0 | 0.00 | 0.00 | 0.00 | 58 | 1019.4 |
| 20260831071551 | 44 | 15 | 0.0 | 4.0 | 0.00 | 0.00 | 0.00 | 58 | 1019.6 |
| 20260831071047 | 44 | 61 | 0.0 | 4.0 | 0.00 | 0.00 | 0.00 | 58 | 1019.4 |
| 20260831070546 | 44 | 101 | 2.0 | 4.0 | 0.00 | 0.00 | 0.00 | 59 | 1019.6 |
| 20260831070041 | 43 | 99 | 0.0 | 5.0 | 0.00 | 0.00 | 0.00 | 60 | 1019.4 |
| 20260831065538 | 43 | 128 | 3.0 | 7.0 | 0.00 | 0.00 | 0.00 | 61 | 1019.5 |
| 20260831065033 | 44 | 185 | 1.0 | 6.0 | 0.00 | 0.00 | 0.00 | 60 | 1019.4 |
| 20260831064528 | 44 | 109 | 3.0 | 8.0 | 0.00 | 0.00 | 0.00 | 60 | 1019.4 |
| 20260831064024 | 44 | 90 | 2.0 | 4.0 | 0.00 | 0.00 | 0.00 | 59 | 1019.4 |
| 20260831063519 | 44 | 101 | 2.0 | 5.0 | 0.00 | 0.00 | 0.00 | 61 | 1019.5 |
| 20260831063014 | 44 | 14 | 1.0 | 8.0 | 0.00 | 0.00 | 0.00 | 60 | 1019.4 |
| 20260831062509 | 44 | 20 | 1.0 | 4.0 | 0.00 | 0.00 | 0.00 | 61 | 1019.4 |
| 20260831062008 | 44 | 60 | 2.0 | 4.0 | 0.00 | 0.00 | 0.00 | 61 | 1019.4 |
| 20260831061506 | 44 | 236 | 2.0 | 2.0 | 0.00 | 0.00 | 0.00 | 62 | 1019.4 |
| 20260831061003 | 44 | 358 | 0.0 | 4.0 | 0.00 | 0.00 | 0.00 | 61 | 1019.4 |
| 20260831060502 | 44 | 259 | 2.0 | 5.0 | 0.00 | 0.00 | 0.00 | 61 | 1019.4 |
| 20260831055956 | 44 | 111 | 3.0 | 9.0 | 0.00 | 0.01 | 0.01 | 62 | 1019.4 |
| 20260831055451 | 44 | 270 | 1.0 | 5.0 | 0.00 | 0.01 | 0.01 | 62 | 1019.4 |
| 20260831054942 | 44 | 327 | 0.0 | 5.0 | 0.00 | 0.01 | 0.01 | 63 | 1019.1 |
| 20260831054441 | 44 | 81 | 0.0 | 7.0 | 0.00 | 0.01 | 0.01 | 65 | 1019.1 |
| 20260831053935 | 44 | 116 | 4.0 | 7.0 | 0.00 | 0.01 | 0.01 | 64 | 1019.3 |
| 20260831053433 | 44 | 125 | 7.0 | 9.0 | 0.00 | 0.01 | 0.01 | 63 | 1019.4 |
| 20260831052928 | 44 | 109 | 8.0 | 9.0 | 0.00 | 0.01 | 0.01 | 63 | 1019.4 |
| 20260831052427 | 45 | 195 | 0.0 | 10.0 | 0.00 | 0.01 | 0.01 | 62 | 1019.3 |
| 20260831051926 | 45 | 114 | 4.0 | 5.0 | 0.00 | 0.01 | 0.01 | 64 | 1019.3 |
| 20260831051425 | 45 | 111 | 3.0 | 5.0 | 0.00 | 0.01 | 0.01 | 63 | 1019.4 |
| 20260831050920 | 46 | 177 | 0.0 | 5.0 | 0.00 | 0.01 | 0.01 | 61 | 1019.1 |
| 20260831050419 | 46 | 90 | 0.0 | 4.0 | 0.00 | 0.01 | 0.01 | 62 | 1019.1 |
| 20260831045918 | 46 | 97 | 3.0 | 7.0 | 0.00 | 0.01 | 0.01 | 62 | 1019.1 |
| 20260831045417 | 46 | 175 | 0.0 | 5.0 | 0.00 | 0.01 | 0.01 | 62 | 1019.3 |
| 20260831044913 | 46 | 14 | 0.0 | 4.0 | 0.00 | 0.01 | 0.01 | 62 | 1019.1 |
| 20260831044408 | 46 | 329 | 3.0 | 3.0 | 0.00 | 0.01 | 0.01 | 63 | 1019.3 |
| 20260831043904 | 46 | 270 | 0.0 | 3.0 | 0.00 | 0.01 | 0.01 | 62 | 1019.4 |
| 20260831043403 | 46 | 69 | 0.0 | 3.0 | 0.00 | 0.01 | 0.01 | 62 | 1019.3 |
| 20260831042859 | 45 | 113 | 3.0 | 5.0 | 0.00 | 0.01 | 0.01 | 64 | 1019.3 |
| 20260831042358 | 46 | 11 | 2.0 | 4.0 | 0.00 | 0.01 | 0.01 | 63 | 1019.1 |
| 20260831041853 | 46 | 51 | 0.0 | 5.0 | 0.00 | 0.01 | 0.01 | 62 | 1019.1 |
| 20260831041352 | 46 | 31 | 0.0 | 4.0 | 0.00 | 0.01 | 0.01 | 61 | 1019.1 |
| 20260831040847 | 46 | 105 | 0.0 | 4.0 | 0.00 | 0.01 | 0.01 | 62 | 1019.0 |
| 20260831040342 | 47 | 82 | 0.0 | 4.0 | 0.00 | 0.01 | 0.01 | 62 | 1019.1 |
| 20260831035840 | 47 | 26 | 1.0 | 4.0 | 0.00 | 0.01 | 0.01 | 61 | 1019.1 |
| 20260831035339 | 47 | 90 | 0.0 | 4.0 | 0.00 | 0.01 | 0.01 | 61 | 1018.8 |
| 20260831034834 | 47 | 115 | 2.0 | 6.0 | 0.00 | 0.01 | 0.01 | 62 | 1019.0 |
| 20260831034329 | 47 | 354 | 1.0 | 3.0 | 0.00 | 0.01 | 0.01 | 62 | 1019.0 |
| 20260831033824 | 47 | 257 | 0.0 | 4.0 | 0.00 | 0.01 | 0.01 | 61 | 1018.8 |
| 20260831033319 | 47 | 112 | 0.0 | 4.0 | 0.00 | 0.01 | 0.01 | 61 | 1018.8 |
| 20260831032814 | 48 | 103 | 3.0 | 5.0 | 0.00 | 0.01 | 0.01 | 61 | 1018.8 |
| 20260831032309 | 49 | 94 | 0.0 | 5.0 | 0.00 | 0.01 | 0.01 | 59 | 1018.7 |
| 20260831031804 | 49 | 17 | 3.0 | 5.0 | 0.00 | 0.01 | 0.01 | 56 | 1018.7 |
| 20260831031303 | 48 | 345 | 0.0 | 4.0 | 0.00 | 0.01 | 0.01 | 59 | 1018.4 |
| 20260831030758 | 47 | 66 | 1.0 | 4.0 | 0.00 | 0.01 | 0.01 | 61 | 1018.5 |
| 20260831030255 | 47 | 90 | 1.0 | 2.0 | 0.00 | 0.01 | 0.01 | 61 | 1018.5 |
| 20260831025749 | 48 | 90 | 2.0 | 3.0 | 0.00 | 0.01 | 0.01 | 60 | 1018.3 |
| 20260831025243 | 48 | 78 | 1.0 | 4.0 | 0.00 | 0.01 | 0.01 | 60 | 1018.5 |
| 20260831024740 | 47 | 103 | 1.0 | 3.0 | 0.00 | 0.01 | 0.01 | 61 | 1018.5 |
| 20260831024239 | 48 | 114 | 1.0 | 3.0 | 0.00 | 0.01 | 0.01 | 62 | 1018.3 |
| 20260831023738 | 49 | 102 | 1.0 | 4.0 | 0.00 | 0.01 | 0.01 | 57 | 1018.2 |
| 20260831023237 | 50 | 123 | 1.0 | 3.0 | 0.00 | 0.01 | 0.01 | 57 | 1018.3 |
| 20260831022732 | 51 | 90 | 2.0 | 4.0 | 0.00 | 0.01 | 0.01 | 55 | 1018.4 |
| 20260831022232 | 54 | 92 | 5.0 | 5.0 | 0.00 | 0.01 | 0.01 | 50 | 1018.3 |
| 20260831021727 | 54 | 121 | 3.0 | 6.0 | 0.00 | 0.01 | 0.01 | 47 | 1018.2 |
| 20260831021226 | 55 | 153 | 3.0 | 5.0 | 0.00 | 0.01 | 0.01 | 46 | 1018.2 |
| 20260831020723 | 55 | 148 | 5.0 | 5.0 | 0.00 | 0.01 | 0.01 | 47 | 1018.2 |
| 20260831020222 | 55 | 152 | 3.0 | 4.0 | 0.00 | 0.01 | 0.01 | 47 | 1018.2 |
| 20260831015718 | 55 | 150 | 2.0 | 4.0 | 0.00 | 0.01 | 0.01 | 48 | 1018.2 |
| 20260831015213 | 58 | 154 | 3.0 | 3.0 | 0.00 | 0.01 | 0.01 | 41 | 1018.2 |
| 20260831014708 | 59 | 194 | 1.0 | 2.0 | 0.00 | 0.01 | 0.01 | 39 | 1018.2 |
| 20260831014203 | 59 | 209 | 0.0 | 1.0 | 0.00 | 0.01 | 0.01 | 39 | 1018.2 |
| 20260831013659 | 60 | 220 | 2.0 | 3.0 | 0.00 | 0.01 | 0.01 | 37 | 1018.3 |
| 20260831013158 | 61 | 172 | 2.0 | 5.0 | 0.00 | 0.01 | 0.01 | 36 | 1018.3 |
| 20260831012653 | 62 | 218 | 11.0 | 11.0 | 0.00 | 0.01 | 0.01 | 36 | 1018.3 |
| 20260831012149 | 62 | 252 | 4.0 | 9.0 | 0.00 | 0.01 | 0.01 | 35 | 1018.3 |
| 20260831011648 | 63 | 225 | 4.0 | 6.0 | 0.00 | 0.01 | 0.01 | 34 | 1018.4 |
| 20260831011144 | 64 | 247 | 3.0 | 6.0 | 0.00 | 0.01 | 0.01 | 35 | 1018.3 |
| 20260831010639 | 64 | 241 | 2.0 | 6.0 | 0.00 | 0.01 | 0.01 | 34 | 1018.3 |
| 20260831010135 | 65 | 231 | 2.0 | 5.0 | 0.00 | 0.01 | 0.01 | 35 | 1018.1 |
| 20260831005634 | 65 | 229 | 5.0 | 6.0 | 0.00 | 0.01 | 0.01 | 34 | 1018.3 |
| 20260831005130 | 65 | 223 | 4.0 | 7.0 | 0.00 | 0.01 | 0.01 | 33 | 1018.3 |
| 20260831004625 | 65 | 221 | 4.0 | 9.0 | 0.00 | 0.01 | 0.01 | 33 | 1018.2 |
| 20260831004115 | 65 | 227 | 10.0 | 13.0 | 0.00 | 0.01 | 0.01 | 33 | 1018.3 |
| 20260831003611 | 66 | 210 | 9.0 | 14.0 | 0.00 | 0.01 | 0.01 | 33 | 1018.3 |
| 20260831003107 | 66 | 237 | 7.0 | 12.0 | 0.00 | 0.01 | 0.01 | 32 | 1018.4 |
| 20260831002605 | 65 | 208 | 9.0 | 14.0 | 0.00 | 0.01 | 0.01 | 32 | 1018.3 |
| 20260831002101 | 66 | 223 | 14.0 | 14.0 | 0.00 | 0.01 | 0.01 | 31 | 1018.2 |
| 20260831001556 | 66 | 190 | 9.0 | 22.0 | 0.00 | 0.01 | 0.01 | 31 | 1018.1 |
| 20260831001052 | 66 | 225 | 9.0 | 16.0 | 0.00 | 0.01 | 0.01 | 32 | 1018.2 |
| 20260831000549 | 66 | 218 | 10.0 | 14.0 | 0.00 | 0.01 | 0.01 | 32 | 1018.3 |
| 20260831000048 | 66 | 217 | 11.0 | 15.0 | 0.00 | 0.01 | 0.01 | 30 | 1018.1 |
| 20260830235547 | 67 | 219 | 9.0 | 15.0 | 0.00 | 0.01 | 0.01 | 31 | 1018.2 |
| 20260830235042 | 67 | 217 | 7.0 | 17.0 | 0.00 | 0.01 | 0.01 | 32 | 1017.9 |
| 20260830234537 | 67 | 235 | 7.0 | 14.0 | 0.00 | 0.01 | 0.01 | 32 | 1018.1 |
| 20260830234032 | 67 | 232 | 6.0 | 17.0 | 0.00 | 0.01 | 0.01 | 31 | 1018.1 |
| 20260830233527 | 67 | 166 | 3.0 | 15.0 | 0.00 | 0.01 | 0.01 | 31 | 1018.2 |
| 20260830233024 | 68 | 296 | 3.0 | 20.0 | 0.00 | 0.01 | 0.01 | 32 | 1018.2 |
| 20260830232519 | 67 | 213 | 9.0 | 16.0 | 0.00 | 0.01 | 0.01 | 32 | 1018.1 |
| 20260830232015 | 67 | 209 | 10.0 | 20.0 | 0.00 | 0.01 | 0.01 | 32 | 1018.2 |
| 20260830231511 | 68 | 232 | 9.0 | 11.0 | 0.00 | 0.01 | 0.01 | 33 | 1017.9 |
| 20260830231010 | 68 | 172 | 3.0 | 18.0 | 0.00 | 0.01 | 0.01 | 33 | 1018.1 |
| 20260830230506 | 67 | 227 | 7.0 | 19.0 | 0.00 | 0.01 | 0.01 | 30 | 1018.2 |
| 20260830230005 | 67 | 228 | 12.0 | 21.0 | 0.00 | 0.01 | 0.01 | 30 | 1018.2 |
| 20260830225501 | 69 | 221 | 7.0 | 13.0 | 0.00 | 0.01 | 0.01 | 32 | 1018.1 |
| 20260830225000 | 68 | 225 | 9.0 | 14.0 | 0.00 | 0.01 | 0.01 | 32 | 1018.1 |
| 20260830224458 | 69 | 207 | 4.0 | 14.0 | 0.00 | 0.01 | 0.01 | 31 | 1017.9 |
| 20260830223955 | 68 | 246 | 8.0 | 26.0 | 0.00 | 0.01 | 0.01 | 32 | 1017.9 |
| 20260830223452 | 69 | 187 | 5.0 | 12.0 | 0.00 | 0.01 | 0.01 | 33 | 1018.3 |
| 20260830222951 | 69 | 209 | 9.0 | 14.0 | 0.00 | 0.01 | 0.01 | 31 | 1017.9 |
| 20260830222446 | 68 | 217 | 15.0 | 15.0 | 0.00 | 0.01 | 0.01 | 31 | 1018.1 |
| 20260830221942 | 67 | 228 | 7.0 | 22.0 | 0.00 | 0.01 | 0.01 | 30 | 1018.2 |
| 20260830221438 | 67 | 229 | 13.0 | 24.0 | 0.00 | 0.01 | 0.01 | 30 | 1018.2 |
| 20260830220933 | 68 | 260 | 10.0 | 17.0 | 0.00 | 0.01 | 0.01 | 30 | 1018.2 |
| 20260830220428 | 68 | 233 | 2.0 | 14.0 | 0.00 | 0.01 | 0.01 | 31 | 1018.3 |
| 20260830215925 | 67 | 230 | 13.0 | 19.0 | 0.00 | 0.01 | 0.01 | 29 | 1018.2 |
| 20260830215420 | 68 | 221 | 8.0 | 19.0 | 0.00 | 0.01 | 0.01 | 31 | 1018.2 |
| 20260830214914 | 66 | 214 | 6.0 | 22.0 | 0.00 | 0.01 | 0.01 | 30 | 1018.2 |
| 20260830214405 | 68 | 229 | 9.0 | 23.0 | 0.00 | 0.01 | 0.01 | 31 | 1018.2 |
| 20260830213904 | 69 | 210 | 9.0 | 13.0 | 0.00 | 0.01 | 0.01 | 33 | 1018.1 |
| 20260830213400 | 68 | 222 | 9.0 | 14.0 | 0.00 | 0.01 | 0.01 | 31 | 1018.1 |
| 20260830212855 | 69 | 249 | 7.0 | 9.0 | 0.00 | 0.01 | 0.01 | 33 | 1018.2 |
| 20260830212351 | 67 | 210 | 7.0 | 22.0 | 0.00 | 0.01 | 0.01 | 33 | 1018.4 |
| 20260830211850 | 68 | 199 | 9.0 | 22.0 | 0.00 | 0.01 | 0.01 | 33 | 1018.2 |
| 20260830211345 | 68 | 203 | 6.0 | 15.0 | 0.00 | 0.01 | 0.01 | 32 | 1018.3 |
| 20260830210841 | 68 | 242 | 14.0 | 15.0 | 0.00 | 0.01 | 0.01 | 34 | 1018.3 |
| 20260830210339 | 67 | 251 | 12.0 | 24.0 | 0.00 | 0.01 | 0.01 | 32 | 1018.3 |
| 20260830205838 | 68 | 191 | 6.0 | 14.0 | 0.00 | 0.01 | 0.01 | 34 | 1018.3 |
| 20260830205337 | 68 | 217 | 8.0 | 19.0 | 0.00 | 0.01 | 0.01 | 35 | 1018.4 |
| 20260830204832 | 68 | 170 | 5.0 | 21.0 | 0.00 | 0.01 | 0.01 | 34 | 1018.4 |
| 20260830204331 | 67 | 212 | 8.0 | 19.0 | 0.00 | 0.01 | 0.01 | 33 | 1018.2 |
| 20260830203827 | 67 | 230 | 11.0 | 23.0 | 0.00 | 0.01 | 0.01 | 30 | 1018.4 |
| 20260830203323 | 68 | 173 | 5.0 | 15.0 | 0.00 | 0.01 | 0.01 | 37 | 1018.4 |
| 20260830202822 | 67 | 207 | 9.0 | 17.0 | 0.00 | 0.01 | 0.01 | 33 | 1018.2 |
| 20260830202317 | 66 | 275 | 4.0 | 22.0 | 0.00 | 0.01 | 0.01 | 35 | 1018.3 |
| 20260830201813 | 67 | 178 | 3.0 | 13.0 | 0.00 | 0.01 | 0.01 | 35 | 1018.2 |
| 20260830201307 | 66 | 252 | 21.0 | 29.0 | 0.00 | 0.01 | 0.01 | 35 | 1017.8 |
| 20260830200803 | 66 | 227 | 10.0 | 21.0 | 0.00 | 0.01 | 0.01 | 36 | 1018.2 |
| 20260830200301 | 66 | 211 | 8.0 | 16.0 | 0.00 | 0.01 | 0.01 | 35 | 1018.2 |
| 20260830195757 | 67 | 177 | 5.0 | 19.0 | 0.00 | 0.01 | 0.01 | 33 | 1018.1 |
| 20260830195257 | 66 | 184 | 6.0 | 19.0 | 0.00 | 0.01 | 0.01 | 37 | 1018.1 |
| 20260830194755 | 66 | 185 | 12.0 | 19.0 | 0.00 | 0.01 | 0.01 | 36 | 1018.1 |
| 20260830194249 | 66 | 222 | 10.0 | 21.0 | 0.00 | 0.01 | 0.01 | 37 | 1018.1 |
| 20260830193749 | 65 | 275 | 7.0 | 18.0 | 0.00 | 0.01 | 0.01 | 35 | 1018.1 |
| 20260830193243 | 65 | 231 | 6.0 | 20.0 | 0.00 | 0.01 | 0.01 | 38 | 1018.2 |
| 20260830192739 | 66 | 223 | 10.0 | 13.0 | 0.00 | 0.01 | 0.01 | 40 | 1018.1 |
| 20260830192234 | 66 | 209 | 7.0 | 16.0 | 0.00 | 0.01 | 0.01 | 40 | 1018.2 |
| 20260830191730 | 66 | 196 | 11.0 | 16.0 | 0.00 | 0.01 | 0.01 | 38 | 1018.3 |
| 20260830191229 | 64 | 231 | 9.0 | 20.0 | 0.00 | 0.01 | 0.01 | 38 | 1018.4 |
| 20260830190725 | 66 | 219 | 4.0 | 16.0 | 0.00 | 0.01 | 0.01 | 39 | 1018.3 |
| 20260830190220 | 65 | 227 | 8.0 | 12.0 | 0.00 | 0.01 | 0.01 | 37 | 1018.2 |
| 20260830185718 | 65 | 244 | 5.0 | 20.0 | 0.00 | 0.01 | 0.01 | 39 | 1018.2 |
| 20260830185214 | 65 | 246 | 8.0 | 18.0 | 0.00 | 0.01 | 0.01 | 38 | 1018.2 |
| 20260830184713 | 65 | 245 | 5.0 | 15.0 | 0.00 | 0.01 | 0.01 | 38 | 1018.2 |
| 20260830184213 | 64 | 267 | 4.0 | 14.0 | 0.00 | 0.01 | 0.01 | 39 | 1018.3 |
| 20260830183708 | 65 | 243 | 9.0 | 15.0 | 0.00 | 0.01 | 0.01 | 37 | 1018.3 |
| 20260830183203 | 65 | 248 | 12.0 | 17.0 | 0.00 | 0.01 | 0.01 | 38 | 1018.2 |
| 20260830182658 | 65 | 219 | 11.0 | 20.0 | 0.00 | 0.01 | 0.01 | 38 | 1018.2 |
| 20260830182154 | 65 | 226 | 4.0 | 21.0 | 0.00 | 0.01 | 0.01 | 40 | 1018.2 |
| 20260830181650 | 65 | 208 | 6.0 | 16.0 | 0.00 | 0.01 | 0.01 | 40 | 1017.8 |
| 20260830181145 | 65 | 251 | 11.0 | 15.0 | 0.00 | 0.01 | 0.01 | 42 | 1017.8 |
| 20260830180644 | 64 | 225 | 3.0 | 16.0 | 0.00 | 0.01 | 0.01 | 42 | 1017.8 |
| 20260830180139 | 64 | 260 | 5.0 | 16.0 | 0.00 | 0.01 | 0.01 | 41 | 1017.9 |
| 20260830175637 | 65 | 233 | 8.0 | 13.0 | 0.00 | 0.01 | 0.01 | 44 | 1017.8 |
| 20260830175133 | 65 | 209 | 9.0 | 15.0 | 0.00 | 0.01 | 0.01 | 45 | 1017.9 |
| 20260830174628 | 64 | 218 | 6.0 | 18.0 | 0.00 | 0.01 | 0.01 | 45 | 1017.7 |
| 20260830174124 | 64 | 226 | 9.0 | 13.0 | 0.00 | 0.01 | 0.01 | 47 | 1017.6 |
| 20260830173618 | 65 | 172 | 7.0 | 20.0 | 0.00 | 0.01 | 0.01 | 47 | 1017.7 |
| 20260830173114 | 64 | 163 | 5.0 | 10.0 | 0.00 | 0.01 | 0.01 | 52 | 1017.8 |
| 20260830172611 | 62 | 160 | 6.0 | 12.0 | 0.00 | 0.01 | 0.01 | 48 | 1017.8 |
| 20260830172107 | 64 | 216 | 7.0 | 19.0 | 0.00 | 0.01 | 0.01 | 49 | 1017.7 |
| 20260830171602 | 64 | 225 | 5.0 | 16.0 | 0.00 | 0.01 | 0.01 | 56 | 1017.7 |
| 20260830171057 | 62 | 165 | 4.0 | 15.0 | 0.00 | 0.01 | 0.01 | 57 | 1017.4 |
| 20260830170556 | 63 | 192 | 6.0 | 16.0 | 0.00 | 0.01 | 0.01 | 58 | 1017.4 |
| 20260830170055 | 63 | 158 | 16.0 | 18.0 | 0.00 | 0.01 | 0.01 | 60 | 1017.3 |
| 20260830165545 | 63 | 203 | 5.0 | 17.0 | 0.00 | 0.01 | 0.01 | 61 | 1017.3 |
| 20260830165040 | 62 | 212 | 7.0 | 16.0 | 0.00 | 0.01 | 0.01 | 62 | 1017.2 |
| 20260830164537 | 62 | 152 | 11.0 | 15.0 | 0.00 | 0.01 | 0.01 | 64 | 1017.3 |
| 20260830164032 | 62 | 161 | 10.0 | 16.0 | 0.00 | 0.01 | 0.01 | 66 | 1017.1 |
| 20260830163529 | 61 | 157 | 6.0 | 14.0 | 0.00 | 0.01 | 0.01 | 67 | 1017.3 |
| 20260830163028 | 60 | 147 | 14.0 | 14.0 | 0.00 | 0.01 | 0.01 | 70 | 1017.1 |
| 20260830162524 | 59 | 141 | 5.0 | 15.0 | 0.00 | 0.01 | 0.01 | 70 | 1017.1 |
| 20260830162019 | 58 | 185 | 5.0 | 12.0 | 0.00 | 0.01 | 0.01 | 72 | 1017.2 |
| 20260830161514 | 58 | 153 | 7.0 | 10.0 | 0.00 | 0.01 | 0.01 | 74 | 1017.4 |
| 20260830161008 | 58 | 190 | 4.0 | 10.0 | 0.00 | 0.01 | 0.01 | 73 | 1017.3 |
| 20260830160504 | 58 | 162 | 7.0 | 14.0 | 0.00 | 0.01 | 0.01 | 72 | 1017.2 |
| 20260830155959 | 58 | 199 | 7.0 | 11.0 | 0.00 | 0.01 | 0.01 | 73 | 1017.3 |
| 20260830155455 | 58 | 134 | 12.0 | 15.0 | 0.00 | 0.01 | 0.01 | 73 | 1017.3 |
| 20260830154951 | 59 | 158 | 5.0 | 14.0 | 0.00 | 0.01 | 0.01 | 75 | 1017.3 |
| 20260830154446 | 59 | 202 | 7.0 | 12.0 | 0.00 | 0.01 | 0.01 | 76 | 1017.2 |
| 20260830153942 | 59 | 199 | 4.0 | 13.0 | 0.00 | 0.01 | 0.01 | 78 | 1017.2 |
| 20260830153438 | 58 | 170 | 5.0 | 10.0 | 0.00 | 0.01 | 0.01 | 79 | 1017.1 |
| 20260830152937 | 57 | 161 | 5.0 | 17.0 | 0.00 | 0.01 | 0.01 | 80 | 1017.0 |
| 20260830152432 | 57 | 178 | 3.0 | 9.0 | 0.00 | 0.01 | 0.01 | 82 | 1017.0 |
| 20260830151925 | 57 | 197 | 3.0 | 10.0 | 0.00 | 0.01 | 0.01 | 83 | 1016.8 |
| 20260830151420 | 57 | 193 | 5.0 | 9.0 | 0.00 | 0.01 | 0.01 | 83 | 1017.1 |
| 20260830150915 | 56 | 214 | 3.0 | 6.0 | 0.00 | 0.01 | 0.01 | 85 | 1017.2 |
| 20260830150414 | 56 | 152 | 3.0 | 5.0 | 0.00 | 0.01 | 0.01 | 85 | 1017.2 |
| 20260830145908 | 56 | 205 | 6.0 | 7.0 | 0.00 | 0.01 | 0.01 | 85 | 1017.1 |
| 20260830145404 | 55 | 231 | 2.0 | 3.0 | 0.00 | 0.01 | 0.01 | 86 | 1017.2 |
| 20260830144903 | 55 | 225 | 0.0 | 5.0 | 0.00 | 0.01 | 0.01 | 86 | 1017.0 |
| 20260830144400 | 55 | 172 | 2.0 | 5.0 | 0.00 | 0.01 | 0.01 | 86 | 1016.7 |
| 20260830143850 | 55 | 142 | 5.0 | 6.0 | 0.00 | 0.01 | 0.01 | 86 | 1016.7 |
| 20260830143349 | 54 | 176 | 2.0 | 8.0 | 0.00 | 0.01 | 0.01 | 87 | 1016.8 |
| 20260830142849 | 54 | 207 | 5.0 | 8.0 | 0.02 | 0.01 | 0.01 | 88 | 1016.7 |
| 20260830142344 | 54 | 157 | 6.0 | 8.0 | 0.02 | 0.01 | 0.01 | 87 | 1016.5 |
| 20260830141839 | 54 | 169 | 4.0 | 9.0 | 0.00 | 0.00 | 0.00 | 87 | 1016.5 |
| 20260830141334 | 54 | 195 | 3.0 | 7.0 | 0.00 | 0.00 | 0.00 | 85 | 1016.7 |
| 20260830140824 | 53 | 148 | 4.0 | 4.0 | 0.00 | 0.00 | 0.00 | 88 | 1016.6 |
| 20260830140319 | 53 | 172 | 2.0 | 5.0 | 0.00 | 0.00 | 0.00 | 87 | 1016.7 |
| 20260830135813 | 53 | 180 | 2.0 | 5.0 | 0.00 | 0.00 | 0.00 | 88 | 1016.7 |
| 20260830135309 | 52 | 180 | 0.0 | 2.0 | 0.02 | 0.00 | 0.00 | 87 | 1016.7 |
| 20260830134805 | 52 | 237 | 0.0 | 4.0 | 0.02 | 0.00 | 0.00 | 87 | 1016.5 |
| 20260830134304 | 52 | 300 | 1.0 | 2.0 | 0.00 | 0.00 | 0.00 | 87 | 1016.4 |
| 20260830133800 | 52 | 188 | 0.0 | 3.0 | 0.00 | 0.00 | 0.00 | 88 | 1016.2 |
| 20260830133255 | 51 | 229 | 2.0 | 2.0 | 0.00 | 0.00 | 0.00 | 88 | 1016.2 |
| 20260830132751 | 50 | 347 | 3.0 | 3.0 | 0.00 | 0.00 | 0.00 | 91 | 1016.4 |
| 20260830132247 | 50 | 356 | 2.0 | 3.0 | 0.00 | 0.00 | 0.00 | 88 | 1016.1 |
| 20260830131745 | 50 | 351 | 2.0 | 3.0 | 0.00 | 0.00 | 0.00 | 89 | 1016.0 |
| 20260830131240 | 49 | 12 | 0.0 | 3.0 | 0.00 | 0.00 | 0.00 | 92 | 1015.9 |
| 20260830130736 | 48 | 99 | 0.0 | 4.0 | 0.00 | 0.00 | 0.00 | 93 | 1015.7 |
| 20260830130235 | 48 | 82 | 0.0 | 3.0 | 0.00 | 0.00 | 0.00 | 93 | 1015.6 |
| 20260830125730 | 48 | 234 | 0.0 | 3.0 | 0.00 | 0.00 | 0.00 | 92 | 1015.9 |
| 20260830125225 | 49 | 254 | 0.0 | 2.0 | 0.00 | 0.00 | 0.00 | 92 | 1015.9 |
| 20260830124722 | 48 | 103 | 0.0 | 3.0 | 0.00 | 0.00 | 0.00 | 93 | 1015.9 |
| 20260830124218 | 48 | 119 | 0.0 | 3.0 | 0.00 | 0.00 | 0.00 | 94 | 1015.6 |
| 20260830123715 | 48 | 120 | 0.0 | 2.0 | 0.00 | 0.00 | 0.00 | 93 | 1015.9 |
| 20260830123211 | 48 | 105 | 2.0 | 3.0 | 0.00 | 0.00 | 0.00 | 93 | 1015.7 |
| 20260830122708 | 48 | 105 | 0.0 | 3.0 | 0.00 | 0.00 | 0.00 | 93 | 1015.7 |
| 20260830122203 | 48 | 90 | 0.0 | 4.0 | 0.00 | 0.00 | 0.00 | 94 | 1015.7 |
| 20260830121659 | 48 | 160 | 0.0 | 3.0 | 0.00 | 0.00 | 0.00 | 94 | 1015.7 |
| 20260830121158 | 48 | 312 | 0.0 | 5.0 | 0.00 | 0.00 | 0.00 | 95 | 1015.6 |
| 20260830120653 | 48 | 357 | 3.0 | 7.0 | 0.00 | 0.00 | 0.00 | 94 | 1016.0 |
| 20260830120149 | 49 | 346 | 3.0 | 4.0 | 0.00 | 0.00 | 0.00 | 90 | 1015.7 |
| 20260830115645 | 50 | 0 | 3.0 | 3.0 | 0.00 | 0.00 | 0.00 | 88 | 1015.9 |
| 20260830115141 | 50 | 32 | 0.0 | 2.0 | 0.00 | 0.00 | 0.00 | 89 | 1015.5 |
| 20260830114638 | 50 | 78 | 1.0 | 4.0 | 0.00 | 0.00 | 0.00 | 88 | 1015.7 |
| 20260830114137 | 50 | 96 | 3.0 | 4.0 | 0.00 | 0.00 | 0.00 | 88 | 1015.7 |
| 20260830113632 | 51 | 90 | 2.0 | 3.0 | 0.00 | 0.00 | 0.00 | 87 | 1015.7 |
| 20260830113127 | 50 | 109 | 3.0 | 4.0 | 0.00 | 0.00 | 0.00 | 91 | 1015.6 |
| 20260830112624 | 50 | 90 | 1.0 | 3.0 | 0.00 | 0.00 | 0.00 | 93 | 1015.9 |
| 20260830112120 | 49 | 93 | 3.0 | 4.0 | 0.00 | 0.00 | 0.00 | 94 | 1015.7 |
| 20260830111615 | 49 | 98 | 2.0 | 5.0 | 0.00 | 0.00 | 0.00 | 93 | 1016.0 |
| 20260830111111 | 50 | 90 | 2.0 | 4.0 | 0.00 | 0.00 | 0.00 | 92 | 1015.9 |
| 20260830110610 | 51 | 102 | 3.0 | 5.0 | 0.00 | 0.00 | 0.00 | 90 | 1016.0 |
| 20260830110106 | 51 | 63 | 2.0 | 5.0 | 0.00 | 0.00 | 0.00 | 89 | 1015.9 |
| 20260830105601 | 50 | 81 | 2.0 | 3.0 | 0.00 | 0.00 | 0.00 | 93 | 1016.0 |
| 20260830105057 | 50 | 90 | 1.0 | 2.0 | 0.00 | 0.00 | 0.00 | 93 | 1016.0 |
| 20260830104553 | 50 | 19 | 2.0 | 2.0 | 0.00 | 0.00 | 0.00 | 93 | 1016.0 |
| 20260830104049 | 50 | 8 | 0.0 | 2.0 | 0.00 | 0.00 | 0.00 | 93 | 1015.9 |
| 20260830103549 | 50 | 18 | 0.0 | 3.0 | 0.00 | 0.00 | 0.00 | 92 | 1015.9 |
| 20260830103049 | 51 | 15 | 0.0 | 1.0 | 0.00 | 0.00 | 0.00 | 92 | 1015.9 |
| 20260830102548 | 51 | 331 | 0.0 | 2.0 | 0.00 | 0.00 | 0.00 | 91 | 1015.9 |
| 20260830102045 | 52 | 0 | 1.0 | 2.0 | 0.00 | 0.00 | 0.00 | 88 | 1016.0 |
| 20260830101540 | 52 | 90 | 2.0 | 2.0 | 0.00 | 0.00 | 0.00 | 87 | 1015.7 |
| 20260830101039 | 51 | 109 | 0.0 | 4.0 | 0.00 | 0.00 | 0.00 | 88 | 1015.6 |
| 20260830100534 | 51 | 11 | 0.0 | 2.0 | 0.00 | 0.00 | 0.00 | 92 | 1016.0 |
| 20260830100033 | 51 | 71 | 1.0 | 2.0 | 0.00 | 0.00 | 0.00 | 92 | 1015.5 |
| 20260830095528 | 51 | 124 | 2.0 | 5.0 | 0.00 | 0.00 | 0.00 | 92 | 1015.6 |
| 20260830095024 | 51 | 74 | 2.0 | 3.0 | 0.00 | 0.00 | 0.00 | 91 | 1015.7 |
| 20260830094520 | 52 | 66 | 1.0 | 3.0 | 0.00 | 0.00 | 0.00 | 88 | 1015.7 |
| 20260830094015 | 52 | 102 | 3.0 | 4.0 | 0.00 | 0.00 | 0.00 | 87 | 1015.9 |
| 20260830093510 | 52 | 90 | 2.0 | 4.0 | 0.00 | 0.00 | 0.00 | 88 | 1015.7 |
| 20260830093006 | 51 | 138 | 3.0 | 4.0 | 0.00 | 0.00 | 0.00 | 90 | 1015.7 |
| 20260830092501 | 51 | 133 | 3.0 | 3.0 | 0.00 | 0.00 | 0.00 | 92 | 1015.9 |
| 20260830091958 | 51 | 90 | 3.0 | 4.0 | 0.00 | 0.00 | 0.00 | 92 | 1015.9 |
| 20260830091453 | 51 | 106 | 2.0 | 4.0 | 0.00 | 0.00 | 0.00 | 92 | 1015.7 |
| 20260830090951 | 51 | 90 | 1.0 | 4.0 | 0.00 | 0.00 | 0.00 | 91 | 1015.9 |
| 20260830090447 | 51 | 96 | 3.0 | 4.0 | 0.00 | 0.00 | 0.00 | 90 | 1015.9 |
| 20260830085941 | 51 | 133 | 3.0 | 5.0 | 0.00 | 0.00 | 0.00 | 92 | 1015.6 |
| 20260830085436 | 50 | 88 | 5.0 | 5.0 | 0.00 | 0.00 | 0.00 | 94 | 1015.9 |
| 20260830084931 | 50 | 121 | 2.0 | 6.0 | 0.00 | 0.00 | 0.00 | 94 | 1015.7 |
| 20260830084426 | 50 | 0 | 1.0 | 2.0 | 0.00 | 0.00 | 0.00 | 94 | 1015.5 |
| 20260830083922 | 50 | 187 | 0.0 | 2.0 | 0.00 | 0.00 | 0.00 | 94 | 1015.6 |
| 20260830083417 | 50 | 105 | 1.0 | 5.0 | 0.00 | 0.00 | 0.00 | 93 | 1015.6 |
| 20260830082912 | 51 | 95 | 4.0 | 5.0 | 0.00 | 0.00 | 0.00 | 92 | 1015.7 |
| 20260830082407 | 51 | 29 | 2.0 | 3.0 | 0.00 | 0.00 | 0.00 | 93 | 1015.7 |
| 20260830081902 | 51 | 112 | 4.0 | 4.0 | 0.00 | 0.00 | 0.00 | 92 | 1015.7 |
| 20260830081357 | 51 | 94 | 3.0 | 5.0 | 0.00 | 0.00 | 0.00 | 92 | 1015.7 |
| 20260830080856 | 51 | 127 | 2.0 | 6.0 | 0.00 | 0.00 | 0.00 | 92 | 1015.9 |